User: anonymous   Login
Location: Caltech
(34.1382°N, 118.1253°W)
Time: 06:42:14
(UTC-07:00)
Language:

GPS 2-04 Rocket1 - Orbit

View from above orbital plane
View from above orbital plane
View from above satellite
View from above satellite

Ground track
Ground track

The orbit data is extracted from the following two-line orbital elements,

1 20303U 89085B   16236.81153950  .00003298  00000-0  12329-3 0  9990
2 20303  35.6301  94.4489 0110474  65.8177 295.4052 15.21556920455194
Epoch (UTC): 23 August 2016 19:28:37
Eccentricity: 0.0110474
inclination: 35.6301°
perigee height: 425 km
apogee height: 577 km
right ascension of ascending node: 94.4489°
argument of perigee: 65.8177°
revolutions per day: 15.21556920
mean anomaly at epoch: 295.4052°
orbit number at epoch: 45519

The dashed part of the orbit path shows where the satellite is in the earth's shadow,  

DLR